User: anonymous   Login
Location: Edson
(53.5864°N, 116.4322°W)
Time: 19:12:40
(UTC+00:00)
Language:

Tiangong - Orbit

View from above orbital plane
View from above orbital plane
View from above satellite
View from above satellite

Ground track
Ground track

The orbit data is extracted from the following two-line orbital elements,

1 48274U 21035A   22023.43363756  .00013705  00000-0  16199-3 0  9997
2 48274  41.4705  20.9159 0002631 145.0238  12.1766 15.61035993 42134
Epoch (UTC): 23 January 2022 10:24:26
Eccentricity: 0.0002631
inclination: 41.4705°
perigee height: 383 km
apogee height: 386 km
right ascension of ascending node: 20.9159°
argument of perigee: 145.0238°
revolutions per day: 15.61035993
mean anomaly at epoch: 12.1766°
orbit number at epoch: 4213

The dashed part of the orbit path shows where the satellite is in the earth's shadow,  

DLR